Hourly Data Report for September 06, 2017

All times are specified in Local Standard Time (LST). Add 1 hour to adjust for Daylight Saving Time where and when it is observed.

NORTH CAPE
PRINCE EDWARD ISLAND

47°03'29.000" N
63°59'55.000" W
7.60 m
8300516
71987
WNE

Download Data

Hourly Data (September 2017)
Hourly Data Report for September 6, 2017
Temp Definition
°C
Dew Point Temp Definition
°C
Rel Hum Definition
%
Wind Dir Definition
10's deg

Wind Spd Definition
km/h
Visibility Definition
km
Stn Press Definition
kPa
Hmdx Definition


Wind Chill Definition


Weather Definition


TIME
00:00 20.1 17.2 84 21 28   100.88 26   LegendNANA
01:00 19.7 17.1 85 21 21   100.92     LegendNANA
02:00 19.3 16.9 86 20 23   100.93     LegendNANA
03:00 19.1 16.5 85 20 25   100.91     LegendNANA
04:00 19.0 16.3 84 21 23   100.96     LegendNANA
05:00 19.2 16.2 83 22 23   101.02     LegendNANA
06:00 18.0 15.9 88 25 29   101.11     LegendNANA
07:00 17.7 15.8 89 23 19   101.24     LegendNANA
08:00 16.9 15.9 94 22 15   101.28     LegendNANA
09:00 17.0 16.2 95 22 12   101.34     LegendNANA
10:00 17.0 16.0 94 23 11   101.38     LegendNANA
11:00 18.2 16.2 88 23 24   101.40     LegendNANA
12:00 19.4 16.8 85 24 22   101.42     LegendNANA
13:00 20.7 17.7 83 22 15   101.43 26   LegendNANA
14:00 20.9 17.5 81 23 9   101.39 27   LegendNANA
15:00 24.4 18.4 69 20 21   101.34 31   LegendNANA
16:00 23.0 19.0 78 21 14   101.37 30   LegendNANA
17:00 22.3 18.7 80 20 15   101.36 29   LegendNANA
18:00 20.4 18.7 90 20 20   101.39 27   LegendNANA
19:00 19.2 17.9 92 20 15   101.45     LegendNANA
20:00 19.0 17.7 92 19 19   101.42     LegendNANA
21:00 19.2 17.5 90 18 16   101.45     LegendNANA
22:00 18.8 17.5 92 18 14   101.45     LegendNANA
23:00 18.7 17.5 93 21 19   101.47     LegendNANA

Notes on Data Quality.

Legend

  • E = Estimated
  • M = Missing
  • NA = Not Available
  • ‡ = Partner data that is not subject to review by the National Climate Archives
Date modified: